Regional Weather Roundup
Issued by NWS

Home | Current Version | Previous Version | Text Only | Print | Product List | Glossary Off
Versions: 1 2 3 4 5 6 7 8 9 10 11 12 13 14 15 16 17 18 19 20 21 22 23 24 25 26 27 28 29 30 31 32 33 34 35 36 37 38 39 40 41 42 43 44 45 46 47 48 49 50

000
ASUS43 KDTX 210210
RWRMI
MICHIGAN HOURLY REGIONAL WEATHER ROUNDUP
NATIONAL WEATHER SERVICE DETROIT/PONTIAC MI
1000 PM EDT WED AUG 20 2014

NOTE: "FAIR" INDICATES FEW OR NO CLOUDS BELOW 12,000 FEET WITH NO
SIGNIFICANT WEATHER AND/OR OBSTRUCTION TO VISIBILITY.

MIZ047>049-052>055-059>063-066>070-074>076-081>083-210300-
SOUTHEAST LOWER MICHIGAN

CITY           SKY/WX    TMP DP  RH WIND       PRES   REMARKS
ADRIAN         CLEAR     70  65  84 CALM      29.95R
ALMA           CLEAR     66  62  86 CALM      29.93R
ANN ARBOR      CLEAR     65  62  90 SW5       29.93R
BAD AXE        MOCLDY    67  67 100 CALM      29.91R
DETROIT CITY   CLEAR     78  62  57 W3        29.92R
DETROIT        PTCLDY    74  63  68 W3        29.93R
FLINT          PTCLDY    71  64  78 SW3       29.92R
GROSSE ILE     CLEAR     72  66  83 CALM      29.91R
HILLSDALE      CLEAR     67  66  99 CALM      29.96R
HOWELL         CLEAR     68  62  81 SW3       29.94R

CITY           SKY/WX    TMP DP  RH WIND       PRES   REMARKS
JACKSON        CLEAR     68  64  87 CALM      29.95R
LAMBERTVILLE   CLEAR     70  64  83 CALM      29.94R
LANSING        CLEAR     68  64  87 CALM      29.93R
LAPEER         NOT AVBL
MASON          CLEAR     65  62  91 CALM      29.94R
MT. CLEMENS    CLEAR     70  65  84 N3        29.91R
PONTIAC        PTCLDY    71  62  73 W3        29.93R
PORT HOPE        N/A     69  66  90 NW3       29.89R
PORT HURON     FOG       66  66 100 CALM      29.92R VSB 1/2
TRI CITIES     CLEAR     69  62  78 N6        29.92R
YPSILANTI      CLEAR     75  64  68 W5        29.93R
$$
MIZ043>046-050>051-056>058-064>065-071>073-077>080-210300-
SOUTHWEST LOWER MICHIGAN

CITY           SKY/WX    TMP DP  RH WIND       PRES   REMARKS
BATTLE CREEK   CLEAR     72  64  76 CALM      29.95R
BENTON HARBOR  PTCLDY    69  66  90 CALM      29.91R
BIG RAPIDS     CLEAR     65  63  93 NW6       29.93R
COLDWATER      CLEAR     70  67  91 SE3       29.94R
HOLLAND        PTCLDY    72  65  78 CALM      29.93R
GRAND RAPIDS   CLEAR     73  66  78 CALM      29.94R
KALAMAZOO      PTCLDY    72  65  78 CALM      29.94R
MARSHALL       PTCLDY    67  64  89 CALM      29.94R
MUSKEGON       PTCLDY    69  64  84 CALM      29.93R
$$
MIZ016>042-210300-
NORTHERN LOWER MICHIGAN

CITY           SKY/WX    TMP DP  RH WIND       PRES   REMARKS
ALPENA         CLOUDY    66  63  90 N6        29.93R
BEAVER ISLAND  CLOUDY    64  62  95 W3        29.95R
BELLAIRE       CLOUDY    64  61  88 CALM      29.94S
CADILLAC       CLOUDY    63  61  93 N6        29.94S
CHARLEVOIX     CLOUDY    64  64 100 W6        29.97R
FRANKFORT      CLEAR     62  58  87 CALM      29.93S
GAYLORD        CLOUDY    62  59  90 NW5       29.95R
GRAYLING       CLOUDY    64  62  92 NW5       29.96R
HARBOR SPRINGS CLOUDY    64  62  95 SW3       29.94R
HOUGHTON LAKE  CLOUDY    64  61  90 NW7       29.95R
MANISTEE       CLEAR     61  57  88 CALM      29.94S
OSCODA         CLOUDY    66  65  97 NE7       29.90S
PELLSTON       CLOUDY    63  63 100 W5        29.94R FOG
TRAVERSE CITY  PTCLDY    64  59  83 CALM      29.93S
$$
MIZ007>008-015-210300-
EASTERN UPPER MICHIGAN

CITY           SKY/WX    TMP DP  RH WIND       PRES   REMARKS
KINROSS        CLOUDY    61  61 100 N6        29.93R
MACKINAC ISLAN FOG       62  62 100 W3        29.92S VSB 3/4
NEWBERRY       CLOUDY    60  59  96 NW3       29.94R
S. S. MARIE    CLOUDY    61  59  93 NW7       29.92R FOG
$$
MIZ004>006-011>014-085-210300-
CENTRAL UPPER MICHIGAN

CITY           SKY/WX    TMP DP  RH WIND       PRES   REMARKS
MANISTIQUE     CLOUDY    63  60  92 N3        29.94R
ESCANABA       CLOUDY    64  61  88 CALM      29.93S
MENOMINEE      CLOUDY    66  63  88 NE3       29.92R
SAWYER-GWINN   FOG       59  57  94 NE3       29.96R VSB 1
$$
MIZ001>003-009>011-084-210300-
WESTERN UPPER MICHIGAN

CITY           SKY/WX    TMP DP  RH WIND       PRES   REMARKS
IRON MOUNTAIN  CLOUDY    65  61  87 N3        29.94R
HOUGHTON       CLOUDY    60  58  92 NW3       29.96R FOG
COPPER HARBOR    N/A     55  54  96 CALM      29.94S
IRONWOOD       CLOUDY    63  61  94 CALM      29.94R
$$

ABBREVIATIONS USED IN REMARKS
   TC - TEMPERATURE IN CELSIUS
  WCI - WIND CHILL INDEX
   HX - HEAT INDEX
  VSB - VISIBILITY



USA.gov is the U.S. government's official web portal to all federal, state and local government web resources and services.